Location: Beetenbrück
(52.8113°N, 9.5946°E)
Time: 18:16:41
(UTC+00:00)

Cosmos 2360 Rocket - Pass Details

Date: 14 April 2026
Orbit: 831 x 845 km, 71.0° (Epoch: 9 May)

Event Time Altitude Azimuth Distance (km) Brightness Sun altitude
Rises 19:33:03 0° 236° (SW) 3,379 5.7 -10.9°
Reaches altitude 10° 19:35:37 10° 243° (WSW) 2,451 5.0 -11.3°
Maximum altitude 19:40:55 41° 313° (NW) 1,210 3.7 -11.9°
Drops below altitude 10° 19:46:16 10° 24° (NNE) 2,472 4.8 -12.6°
Sets 19:48:53 0° 31° (NNE) 3,412 5.4 -12.9°
